sat.trackr.live / text

‹ back to catalog

NUSAT-45 (UZMASAT-1)

NORAD 62640 · 2025-009AH

PAYLOAD ACTIVE UNKNOWN

§ Identity

Operator
Country
ARGN
Launch date
2025-01-14
Launch site
AFWTR
Launch vehicle
Mass (kg)
RCS (m²)

External: N2YO · Heavens-Above · Gunter

§ Orbital elements

Epoch: 2026-05-24T18:40:19.515360Z

Period
94.11 min
Inclination
97.3595°
Eccentricity
0.0003186
Mean motion
15.30077605 rev/d
Perigee alt
473.4 km
Apogee alt
477.8 km
Semi-major
6,853.7 km
B*
2.7705e-4
RAAN
226.1971°
Arg perigee
75.0345°
Mean anomaly
285.1248°
Rev number
7,534

§ Raw data

NUSAT-45 (UZMASAT-1)1 62640U 25009AH  26144.77800365  .00007991  00000+0  27705-3 0  99962 62640  97.3595 226.1971 0003186  75.0345 285.1248 15.30077605 75341

JSON: /api/v1/satellites/62640 · /tle

For live sub-satellite position, see the globe view (requires WebGL).

§ Visibility from observer

Set your observer location to see the next 7 days of passes ≥ 10°. The values pass through the URL so the page stays shareable.

No JS? Fill the form by hand. The geolocation button needs JavaScript.